HYPE

导读

HYPE是美国于2025年1月14日发射的人造卫星,依托美国成熟航天发射体系完成入轨部署。作为美国航天布局中新发射的太空资产,该卫星将服务于特定空间应用需求,可能涉及对地观测、技术验证或太空态势感知等领域。截至2026年3月,卫星已在轨运行超一年,顺利完成初期在轨测试,持续开展既定任务,为美国太空基础设施建设补充新的能力节点,助力其维持太空领域技术与应用优势。

基本信息
目录编号:
62687
目录名称:
HYPE
国际标识:
2025-009CG
轨道中心:
EARTH
卫星名称:
HYPE
卫星全名:
HYPE
卫星状态:
已陨落 最后检测时间 2025-12-09
发射日期:
2025-01-14 UTC
国别 :
波兰 (PL)
星等 :
--
轨道信息
数据来源 国际轨道数据
星历时间: 2025-12-08T12:36:09+0800
轨道信息已过期271天
半长轴: 6598.591km
偏心率: 0.0009856
轨道倾角: 97.396°
近地点辐角 307.775°
升交点赤经 68.824°
平近点角 52.265°
近地点: 213.952km
远地点: 226.96km
周期: 88.907分钟
每日圈数: 16.19668
详细信息
使用方式:
暂无